Johnstown, PA

12:52 AM EST on January 21, 2017 (GMT -0500)
Johnstown

Weather History for KJST - March, 2012

Change the Weather History Date:

Friday, March 16, 2012

  Actual Average Record
Temperature  
Mean Temperature 60 °F 35 °F  
Max Temperature 66 °F 43 °F 79 °F (1935)
Min Temperature 53 °F 28 °F 4 °F (1911)
Degree Days  
Heating Degree Days 6 30  
Month to date heating degree days 515  
Since 1 July heating degree days 5394  
Cooling Degree Days 0 0  
Month to date cooling degree days 0  
Year to date cooling degree days 0  
Growing Degree Days 10 (Base 50)    
Moisture  
Dew Point 51 °F    
Average Humidity 78    
Maximum Humidity 94    
Minimum Humidity 59    
Precipitation  
Precipitation 0.09 in 0.11 in 0.97 in (1942)
Month to date precipitation 1.42  
Year to date precipitation 6.65  
Sea Level Pressure  
Sea Level Pressure 30.15 in    
Wind  
Wind Speed 8 mph (WSW)    
Max Wind Speed 15 mph    
Max Gust Speed 22 mph    
Visibility 10 miles    
Events Rain    
T = Trace of Precipitation, MM = Missing Value Source: NWS Daily Summary

Daily Weather History Graph

Daily Weather History Graph

Search for Another Location

Airport or City:

Trip Planner

Search our weather history database for the weather conditions in past years. The results will help you decide how hot, cold, wet, or windy it might be!

Date:

Astronomy

Mar. 16, 2012 Rise Set
Actual Time 7:24 AM EDT 7:23 PM EDT
Civil Twilight 6:57 AM EDT 7:50 PM EDT
Nautical Twilight 6:25 AM EDT 8:22 PM EDT
Astronomical Twilight 5:53 AM EDT 8:54 PM EDT
Moon 3:42 AM EDT (3/16) 1:41 PM EDT (3/16)
Length of Visible Light 12h 53m
Length of Day
11h 59m
Waning Crescent, 33% of the Moon is Illuminated
Mar 16
Waning Crescent
Mar 22
New
Mar 30
First Quarter
Apr 6
Full
Apr 13
Last Quarter

Hourly Weather History & Observations

Time (EDT) Temp. Dew Point Humidity Pressure Visibility Wind Dir Wind Speed Gust Speed Precip Events Conditions
12:54 AM 55.9 °F 46.0 °F 69% 30.14 in 10.0 mi WSW 5.8 mph - 0.00 in   Scattered Clouds
1:54 AM 55.9 °F 48.0 °F 75% 30.12 in 10.0 mi WSW 9.2 mph - 0.00 in   Mostly Cloudy
2:54 AM 55.0 °F 48.9 °F 80% 30.11 in 10.0 mi WSW 6.9 mph - 0.01 in   Overcast
3:54 AM 54.0 °F 50.0 °F 86% 30.11 in 10.0 mi WSW 6.9 mph - 0.03 in Rain Light Rain
4:35 AM 53.6 °F 51.8 °F 94% 30.13 in 10.0 mi West 5.8 mph - 0.01 in Rain Light Rain
4:54 AM 54.0 °F 51.1 °F 90% 30.12 in 8.0 mi WSW 9.2 mph - 0.02 in   Overcast
5:54 AM 53.1 °F 51.1 °F 93% 30.12 in 10.0 mi SW 9.2 mph - 0.03 in   Overcast
6:06 AM 53.6 °F 51.8 °F 94% 30.13 in 10.0 mi SW 9.2 mph - N/A   Mostly Cloudy
6:49 AM 53.6 °F 51.8 °F 94% 30.13 in 10.0 mi SW 10.4 mph - 0.00 in   Mostly Cloudy
6:54 AM 53.1 °F 51.1 °F 93% 30.12 in 10.0 mi SW 9.2 mph - 0.00 in Rain Light Rain
7:54 AM 53.1 °F 51.1 °F 93% 30.13 in 9.0 mi West 9.2 mph - 0.00 in   Mostly Cloudy
8:54 AM 54.0 °F 52.0 °F 93% 30.14 in 10.0 mi SSW 3.5 mph - N/A   Clear
9:24 AM 55.4 °F 53.6 °F 94% 30.16 in 10.0 mi SSW 6.9 mph - N/A   Mostly Cloudy
9:51 AM 55.4 °F 53.6 °F 94% 30.16 in 10.0 mi WSW 3.5 mph - N/A   Overcast
9:54 AM 55.0 °F 53.1 °F 93% 30.15 in 10.0 mi SW 6.9 mph - N/A   Overcast
10:17 AM 57.2 °F 53.6 °F 88% 30.16 in 10.0 mi WSW 4.6 mph - N/A   Scattered Clouds
10:54 AM 59.0 °F 53.1 °F 81% 30.15 in 10.0 mi SW 4.6 mph - N/A   Clear
11:54 AM 63.0 °F 50.0 °F 63% 30.15 in 10.0 mi WNW 15.0 mph 19.6 mph N/A   Partly Cloudy
12:54 PM 64.4 °F 50.0 °F 59% 30.16 in 10.0 mi NW 15.0 mph 21.9 mph N/A   Partly Cloudy
1:24 PM 66.2 °F 51.8 °F 60% 30.15 in 10.0 mi WNW 12.7 mph 16.1 mph N/A   Mostly Cloudy
1:54 PM 64.9 °F 51.1 °F 61% 30.13 in 10.0 mi NW 12.7 mph - N/A   Mostly Cloudy
2:07 PM 66.2 °F 51.8 °F 60% 30.14 in 10.0 mi NW 12.7 mph - N/A   Mostly Cloudy
2:54 PM 64.0 °F 51.1 °F 63% 30.13 in 10.0 mi WNW 12.7 mph - N/A   Overcast
3:54 PM 63.0 °F 50.0 °F 63% 30.14 in 10.0 mi WNW 11.5 mph - N/A   Overcast
4:54 PM 63.0 °F 51.1 °F 65% 30.14 in 10.0 mi West 9.2 mph - N/A   Mostly Cloudy
5:54 PM 64.0 °F 50.0 °F 60% 30.14 in 10.0 mi West 6.9 mph - N/A   Partly Cloudy
6:54 PM 62.1 °F 51.1 °F 67% 30.16 in 10.0 mi WNW 6.9 mph - N/A   Partly Cloudy
7:54 PM 59.0 °F 50.0 °F 72% 30.18 in 10.0 mi West 6.9 mph - N/A   Clear
8:54 PM 57.9 °F 50.0 °F 75% 30.19 in 10.0 mi West 4.6 mph - N/A   Clear
9:54 PM 57.0 °F 50.0 °F 77% 30.20 in 10.0 mi WSW 4.6 mph - N/A   Clear
10:54 PM 57.0 °F 50.0 °F 77% 30.20 in 10.0 mi SW 4.6 mph - N/A   Clear
11:54 PM 57.0 °F 50.0 °F 77% 30.21 in 10.0 mi WSW 3.5 mph - N/A   Clear